Location: Newark
(55.7083°N, 13.1992°E)
Time: 23:15:46
(UTC+00:00)

Envisat - Pass Details

Date: 04 October 2022
Orbit: 763 x 765 km, 98.2° (Epoch: 09 December)

Event Time Altitude Azimuth Distance (km) Brightness Sun altitude
Rises 01:39:04 0° 29° (NNE) 3,248 7.3 -29.2°
Reaches altitude 10° 01:44:33 10° 78° (ENE) 2,312 6.2 -28.6°
Maximum altitude 01:44:40 10° 79° (E) 2,311 6.2 -28.6°
Drops below altitude 10° 01:44:48 10° 81° (E) 2,312 6.2 -28.6°
Sets 01:50:13 0° 129° (SE) 3,228 6.4 -28.0°
